IRIDIUM 33 DEB, 34896

Orbit data source: Space-Track

IRIDIUM 33 DEB, 34896 is space debris in LEO originally from a launch on Sun, 14 Sep 1997 UTC launched from the Tyuratam Missile And Space Complex (TTMTR). The debris from Iridium 33, an American commercial communications satellite, has been tracked extensively since its accidental collision with the defunct Russian satellite Cosmos 2251 in 2009. This event, occurring at high speed in low Earth orbit (LEO), generated thousands of pieces of space debris, significantly increasing the risk of further collisions. The Iridium 33 debris cloud has impacted space traffic management and orbital debris mitigation strategies, making it a subject of ongoing study in space situational awareness.

Loading next visibility...
Identifier
34896, 1997-051MY
Orbit
LEO
Country
Flag of USUS
Related business
Manufacturer
Unknown
Mission
Spacecraft
Bus & Motor
Unknown
Mass
Unknown
Launch date (UTC)
1997-09-14 (28 years ago)
Launch vehicle
Unknown
Launch site
Tyuratam Missile And Space Complex (TTMTR)
Object type
Payload
Rocket body
Debris
Shape & HBR
Unknown shape, 0.1 m
Radar Cross Section
Small (<0.1 m²)

Expand to show TLE details & history
Last TLE update: 3 days ago

TLE from 3 days ago
0 IRIDIUM 33 DEB
1 34896U 97051MY  25308.34988214  .00004858  00000-0  88438-3 0  9998
2 34896  86.3303 343.8955 0025799 355.4324  18.4350 14.65700182870572
Epoch: 2025-11-04T08:23Z
TLE epoch observation values (Epoch: 2025-11-04T08:23:49.816Z)
Latitude
13.89824°
Longitude
175.00417°
Altitude
659.922 km
Speed
7.538 km/s
True Right ascension
22h 59m 11s
True Declination
13° 49' 02"
Sunlit
Object was in full shadow at epoch
Visualization orbit readout
Latitude
Unknown
Longitude
Unknown
Altitude
Unknown
Speed
Unknown
Apparent Right ascension
Unknown
Apparent Declination
Unknown
Sunlit
N/A
Visualization observer readout
Local Sidereal Time
21:59:58
Azimuth
Unknown
Elevation
Unknown
Doppler factor
Unknown
Orbital elements
Apogee altitude
689.938 km
Perigee altitude
653.562 km
Semi-major axis
7,049.887 km
Eccentricity
0.00258
Inclination
86.3303°
RAAN
343.8955°
Arg. of periapsis
355.4324°
True anomaly
18.52877°
Mean anomaly
18.435°
Eccentric anomaly
18.48186°
Mean motion
3.66665 °/min
Orbital period
98.18 mins
BSTAR
0.00088438
Loading maneuver chart data...
Computing Atmospheric mass density...

Documentation

Showing up to 5 results
|